Weather reports worldwide

Advertisment
Manresa, Spain (8174): temperature & dewpoint: 11.10.2018 08:00:00 - 17.10.2018 08:00:00 (CEST)Manresa, Spain (8174): wind speed & gusts: 11.10.2018 08:00:00 - 17.10.2018 08:00:00 (CEST)Manresa, Spain (8174): wind direction: 11.10.2018 08:00:00 - 17.10.2018 08:00:00 (CEST)Manresa, Spain (8174): reduced air pressure: 11.10.2018 08:00:00 - 17.10.2018 08:00:00 (CEST)Manresa, Spain (8174): visibility: 11.10.2018 08:00:00 - 17.10.2018 08:00:00 (CEST)Manresa, Spain (8174): sunshine duration: 11.10.2018 08:00:00 - 17.10.2018 08:00:00 (CEST)Manresa, Spain (8174): precipitation: 11.10.2018 08:00:00 - 17.10.2018 08:00:00 (CEST)
Date & Time tt [°C] td [°C] ff [km/h] ff [kn] fx [km/h] fx [kn] dd ppp [hPa] vv [km] sd [min] rr [mm]
17.10.2018 08:00:00 - - - - - - - - - - -
17.10.2018 07:00:00 12,8 11,7 3 2 6 3 ENE 1017,4 8 0 0,0
17.10.2018 06:00:00 12,4 11,3 2 1 6 3 NW 1017,4 7 0 0,6
17.10.2018 05:00:00 12,3 10,9 2 1 4 2 SW 1017,4 20 0 0,0
17.10.2018 04:00:00 12,2 10,8 0 0 7 4 N 1017,7 10 0 0,0
17.10.2018 03:00:00 12,8 11,2 4 2 7 4 NNE 1018,1 12 0 0,0
17.10.2018 02:00:00 13,4 11,4 2 1 7 4 NNE 1018,1 10 0 -
17.10.2018 01:00:00 13,9 11,8 2 1 8 5 N 1018,3 13 0 0,0
17.10.2018 00:00:00 14,7 12,4 3 2 6 3 NNE 1018,4 20 0 0,0
16.10.2018 23:00:00 14,9 12,4 4 2 6 3 N 1018,4 20 0 0,0
16.10.2018 22:00:00 15,8 13,1 2 1 10 5 N 1018,0 20 0 0,0
16.10.2018 21:00:00 16,9 13,1 5 3 9 5 E 1017,4 20 0 0,0
16.10.2018 20:00:00 17,9 13,0 2 1 13 7 SSW 1016,7 20 0 -
16.10.2018 19:00:00 19,0 12,5 6 3 13 7 S 1016,0 20 0 0,0
16.10.2018 18:00:00 20,5 11,7 9 5 17 9 SSW 1015,2 20 45 0,0
16.10.2018 17:00:00 21,3 11,6 8 5 16 9 S 1014,8 20 59 0,0
16.10.2018 16:00:00 21,0 11,3 5 3 13 7 SSE 1014,6 20 44 0,0
16.10.2018 15:00:00 21,5 10,6 4 2 11 6 WNW 1014,6 20 58 0,0
16.10.2018 14:00:00 19,9 10,6 7 4 11 6 W 1015,3 20 60 -
16.10.2018 13:00:00 17,7 12,5 3 2 11 6 S 1016,0 20 60 0,0
16.10.2018 12:00:00 14,9 11,7 4 2 8 4 SSE 1016,3 15 24 0,0
16.10.2018 11:00:00 12,9 11,4 3 2 6 3 WSW 1016,8 9 0 0,0
16.10.2018 10:00:00 11,9 11,3 3 1 8 4 E 1016,7 3,2 0 0,0
16.10.2018 09:00:00 11,6 11,0 3 2 8 4 NNW 1016,3 2,5 0 0,0
16.10.2018 08:00:00 11,1 10,5 4 2 6 4 W 1015,2 0,2 0 -
16.10.2018 07:00:00 11,5 10,9 5 3 9 5 ENE 1014,3 0,2 0 0,0
16.10.2018 06:00:00 11,5 10,8 6 3 10 5 ENE 1013,6 0,2 0 0,0
16.10.2018 05:00:00 11,2 9,9 2 1 7 4 ENE 1013,4 8 0 0,0
16.10.2018 04:00:00 11,9 11,0 2 1 7 4 WNW 1013,3 0,3 0 0,0
16.10.2018 03:00:00 11,8 10,6 2 1 6 3 NNE 1013,5 17 0 0,0
16.10.2018 02:00:00 12,1 10,6 3 1 6 3 NNE 1013,3 20 0 -
16.10.2018 01:00:00 12,2 10,6 2 1 4 2 S 1013,3 20 0 0,0
16.10.2018 00:00:00 12,7 10,6 3 2 7 4 SSW 1012,7 20 0 0,0
15.10.2018 23:00:00 13,3 10,6 3 2 9 5 WSW 1012,3 20 0 0,0
15.10.2018 22:00:00 14,2 10,8 4 2 9 5 W 1011,4 20 0 0,0
15.10.2018 21:00:00 15,2 11,8 1 1 7 4 ESE 1010,6 20 0 0,0
15.10.2018 20:00:00 15,5 10,9 2 1 8 5 WNW 1009,8 20 0 -
15.10.2018 19:00:00 16,4 10,6 5 3 14 7 W 1008,9 20 23 0,0
15.10.2018 18:00:00 17,3 11,6 8 4 19 10 W 1008,2 20 15 0,0
15.10.2018 17:00:00 17,6 11,7 4 2 16 9 NW 1007,6 20 23 0,0
15.10.2018 16:00:00 18,4 11,4 5 3 17 9 NW 1007,0 20 60 0,0
15.10.2018 15:00:00 17,2 11,9 11 6 24 13 WNW 1007,0 20 11 0,0
15.10.2018 14:00:00 15,6 11,2 11 6 25 13 W 1007,4 20 0 -
15.10.2018 13:00:00 16,1 11,9 10 5 21 11 W 1007,5 20 0 0,0
15.10.2018 12:00:00 15,8 11,8 7 4 18 10 WNW 1007,2 20 2 0,0
15.10.2018 11:00:00 15,0 11,8 10 5 19 10 WNW 1006,7 20 0 0,0
15.10.2018 10:00:00 14,8 11,9 4 2 16 9 NNW 1006,1 20 0 0,0
15.10.2018 09:00:00 14,2 11,9 5 3 20 11 W 1005,6 20 0 0,0
15.10.2018 08:00:00 14,4 12,1 6 3 18 10 W 1004,9 20 0 -
15.10.2018 07:00:00 14,7 12,5 10 5 21 11 WNW 1004,3 20 0 0,2
15.10.2018 06:00:00 15,1 13,2 7 4 15 8 WSW 1003,8 3,4 0 2,0
15.10.2018 05:00:00 17,0 15,2 6 4 21 11 S 1003,4 20 0 0,0
15.10.2018 04:00:00 17,5 14,8 10 5 23 13 SSE 1003,0 20 0 0,0
15.10.2018 03:00:00 17,5 15,2 12 7 44 24 SSE 1003,1 20 0 4,8
15.10.2018 02:00:00 18,0 15,6 12 7 42 23 SE 1002,8 13 0 -
15.10.2018 01:00:00 17,3 15,3 5 3 31 17 E 1004,1 11 0 5,6
15.10.2018 00:00:00 17,8 16,1 8 4 46 25 SSE 1004,1 8 0 13,6
14.10.2018 23:00:00 17,6 16,3 6 3 16 9 E 1004,8 12 0 3,4
14.10.2018 22:00:00 16,9 16,0 8 5 24 13 ENE 1006,0 2,7 0 23,4
14.10.2018 21:00:00 18,2 16,7 3 2 15 8 N 1007,0 0,9 0 6,4
14.10.2018 20:00:00 20,1 14,4 5 3 29 16 ESE 1007,1 20 0 -
14.10.2018 19:00:00 20,4 14,5 9 5 25 14 SE 1007,1 20 0 0,0
14.10.2018 18:00:00 21,0 15,1 10 5 26 14 SSE 1007,4 20 0 0,0
14.10.2018 17:00:00 21,7 15,8 12 7 33 18 S 1007,4 20 16 0,0
14.10.2018 16:00:00 23,5 13,1 16 9 34 18 S 1007,5 20 35 0,0
14.10.2018 15:00:00 23,6 13,8 14 7 31 17 SSE 1008,1 20 23 0,0
14.10.2018 14:00:00 22,6 15,4 13 7 23 13 S 1009,4 20 6 -
14.10.2018 13:00:00 22,1 16,4 8 5 15 8 S 1010,4 20 11 0,0
14.10.2018 12:00:00 20,5 15,9 3 2 8 5 WSW 1011,2 20 26 0,0
14.10.2018 11:00:00 18,3 15,3 2 1 6 3 ENE 1011,8 13 0 0,0
14.10.2018 10:00:00 17,4 14,7 4 2 8 4 NE 1012,4 14 8 0,0
14.10.2018 09:00:00 16,2 14,5 3 2 8 5 N 1012,6 12 0 0,0
14.10.2018 08:00:00 16,1 14,2 4 2 7 4 NE 1012,4 11 0 -
14.10.2018 07:00:00 16,4 14,4 5 3 11 6 NE 1012,8 14 0 0,0
14.10.2018 06:00:00 16,4 14,4 4 2 11 6 N 1013,4 13 0 0,0
14.10.2018 05:00:00 16,6 14,6 5 3 10 6 NE 1013,8 15 0 0,0
14.10.2018 04:00:00 16,7 14,9 7 4 11 6 NE 1014,0 14 0 0,0
14.10.2018 03:00:00 17,6 15,3 5 3 10 5 ENE 1014,7 12 0 0,0
14.10.2018 02:00:00 18,0 15,4 5 3 9 5 ENE 1015,4 17 0 -
14.10.2018 01:00:00 18,6 16,0 4 2 14 8 S 1015,6 14 0 0,0
14.10.2018 00:00:00 19,1 16,0 5 3 16 9 S 1015,9 19 0 0,0
13.10.2018 23:00:00 19,8 16,2 7 4 20 11 S 1016,1 20 0 0,0
13.10.2018 22:00:00 19,7 16,1 7 4 20 11 S 1016,3 20 0 0,0
13.10.2018 21:00:00 20,0 16,0 10 5 22 12 S 1016,2 20 0 0,0
13.10.2018 20:00:00 20,6 16,2 11 6 20 11 S 1016,4 20 0 -
13.10.2018 19:00:00 21,2 16,4 11 6 27 15 S 1016,1 20 1 0,0
13.10.2018 18:00:00 22,0 17,1 9 5 31 17 S 1016,0 20 22 0,0
13.10.2018 17:00:00 22,7 17,1 12 7 28 15 S 1016,3 20 11 0,0
13.10.2018 16:00:00 23,4 17,1 14 7 26 14 S 1016,7 20 38 0,0
13.10.2018 15:00:00 24,4 16,4 10 5 22 12 S 1017,3 20 19 0,0
13.10.2018 14:00:00 - - - - - - - - - - -
13.10.2018 13:00:00 22,5 17,0 5 3 11 6 SSW 1019,7 20 0 0,0
13.10.2018 12:00:00 21,1 16,7 3 1 6 3 NE 1020,4 13 24 0,0
13.10.2018 11:00:00 19,9 16,7 4 2 6 4 N 1020,7 7 7 0,0
13.10.2018 10:00:00 18,4 16,4 3 2 5 3 W 1021,1 7 0 0,0
13.10.2018 09:00:00 18,0 16,3 0 0 4 2 N 1020,9 8 0 0,0
13.10.2018 08:00:00 17,7 16,0 1 1 4 2 SSE 1020,8 7 0 -
13.10.2018 07:00:00 - - - - - - - - - - -
13.10.2018 06:00:00 17,6 16,1 3 1 4 2 NE 1021,1 7 0 0,0
13.10.2018 05:00:00 17,6 16,1 3 2 5 3 SW 1021,4 6 0 0,0
13.10.2018 04:00:00 17,6 15,8 2 1 6 3 SE 1021,6 10 0 0,0
13.10.2018 03:00:00 18,0 16,1 4 2 5 3 NE 1022,0 11 0 0,0
13.10.2018 02:00:00 18,2 16,4 2 1 4 2 WNW 1022,1 10 0 -
13.10.2018 01:00:00 18,8 16,6 3 1 9 5 E 1022,3 13 0 0,0
13.10.2018 00:00:00 19,2 17,4 3 2 6 3 E 1022,4 9 0 0,0
12.10.2018 23:00:00 19,7 17,5 3 2 16 9 SW 1022,3 13 0 0,0
12.10.2018 22:00:00 20,2 17,4 7 4 23 12 S 1022,1 15 0 0,0
12.10.2018 21:00:00 20,7 17,5 9 5 19 10 S 1021,5 20 0 0,0
12.10.2018 20:00:00 21,6 17,6 10 5 21 11 S 1021,2 20 0 -
12.10.2018 19:00:00 23,0 17,7 10 5 25 14 S 1020,5 20 50 0,0
12.10.2018 18:00:00 24,3 17,5 13 7 25 14 S 1020,1 20 43 0,0
12.10.2018 17:00:00 25,4 16,6 11 6 25 14 S 1020,2 20 55 0,0
12.10.2018 16:00:00 25,2 16,0 14 7 23 12 S 1020,3 20 28 0,0
12.10.2018 15:00:00 - - - - - - - - - - -
12.10.2018 14:00:00 25,2 15,5 10 5 20 11 SSW 1021,3 6 60 -
12.10.2018 13:00:00 23,4 16,0 9 5 16 9 SSW 1022,2 20 60 0,0
12.10.2018 12:00:00 20,5 14,1 3 1 6 4 W 1022,8 18 60 0,0
12.10.2018 11:00:00 17,7 13,3 3 2 6 3 NNE 1023,0 20 60 0,0
12.10.2018 10:00:00 15,5 12,6 3 2 6 4 NE 1022,9 15 38 0,0
12.10.2018 09:00:00 12,9 11,4 3 1 6 3 W 1022,4 10 0 0,0
12.10.2018 08:00:00 12,9 11,7 3 2 5 3 ENE 1021,5 7 0 -
12.10.2018 07:00:00 13,1 11,7 2 1 6 3 N 1020,8 11 0 0,0
12.10.2018 06:00:00 13,7 12,2 2 1 5 3 NE 1020,2 4,1 0 0,0
12.10.2018 05:00:00 13,9 12,6 3 1 6 3 NE 1019,9 7 0 0,0
12.10.2018 04:00:00 14,1 12,6 3 1 8 4 NE 1019,9 14 0 0,0
12.10.2018 03:00:00 14,8 13,2 2 1 6 4 NE 1019,6 4,7 0 0,0
12.10.2018 02:00:00 15,2 13,3 2 1 4 2 WNW 1019,3 13 0 -
12.10.2018 01:00:00 16,0 14,0 1 1 5 3 N 1018,7 18 0 0,0
12.10.2018 00:00:00 17,2 14,4 2 1 6 3 SSW 1018,0 20 0 0,0
11.10.2018 23:00:00 18,7 16,1 3 2 10 5 SSW 1017,4 17 0 0,0
11.10.2018 22:00:00 19,6 16,0 8 4 14 8 S 1016,7 20 0 0,0
11.10.2018 21:00:00 20,7 15,3 7 4 13 7 S 1015,9 20 0 0,0
11.10.2018 20:00:00 - - - - - - - - - - -
11.10.2018 19:00:00 22,0 15,1 8 4 19 10 S 1014,4 20 0 0,0
11.10.2018 18:00:00 23,5 14,2 8 4 22 12 S 1013,0 20 12 0,0
11.10.2018 17:00:00 24,4 14,5 10 5 23 12 S 1012,5 20 31 0,0
11.10.2018 16:00:00 25,2 14,6 10 5 19 10 S 1012,5 20 53 0,0
11.10.2018 15:00:00 24,0 15,8 8 4 15 8 SSW 1012,9 20 28 0,0
11.10.2018 14:00:00 21,4 14,3 5 3 11 6 S 1013,5 20 24 -
11.10.2018 13:00:00 19,1 14,5 3 2 9 5 SW 1014,0 17 58 0,0
11.10.2018 12:00:00 16,7 13,9 5 3 10 5 E 1014,6 11 9 0,0
11.10.2018 11:00:00 15,0 13,6 4 2 9 5 W 1015,0 7 0 0,0
11.10.2018 10:00:00 14,3 13,4 2 1 8 4 NW 1014,6 2,3 0 0,0
11.10.2018 09:00:00 13,9 13,2 3 1 8 4 NNW 1013,9 0,5 0 0,0
11.10.2018 08:00:00 13,8 12,6 4 2 10 5 WNW 1013,3 1,2 0 -

tt = temperature
td = dewpoint
ff = wind speed
fx = gusts
dd = wind direction
ppp = reduced air pressure
vv = visibility
sd = sunshine duration
rr = precipitation

Next stations